DECAYED
Showing default

PICO-01G005, 58330 (Decayed)

Orbit data source: Space-Track

PICO-01G005, 58330 was a payload satellite owned by Apogeo Space (IT) in LEO that was launched on Sat, 11 Nov 2023 UTC via an FALCON 9 launch vehicle from the Air Force Western Test Range (AFWTR). Payload-class satellites include a variety of spacecraft equipped with specific instruments for various scientific and technological missions. These include communications satellites like Starlink; space stations such as the ISS; scientific satellites like the Hubble; Earth observation satellites from companies like Planet Labs, Umbra, and HawkEye 360; GPS; miniature CubeSats for education and research; and military/defense satellites.

Not visible in the next 10 days
Identifier
58330, 2023-174CC
Orbit
Decayed
Country
Flag of ITIT
Related business
Manufacturer
Apogeo Space
Mission
Decayed Commercial Communications
Bus & Motor
CUBESAT 0.3U, Unknown motor
Mass
0.5 kg wet, 0.5 kg dry
Launch date (UTC)
2023-11-11 (3 years ago)
Launch vehicle
FALCON 9
Launch site
Air Force Western Test Range (AFWTR)
Object type
Payload
Rocket body
Debris
Shape & HBR
Box, 0.1 m
Radar Cross Section
0.008 m², Medium (>0.1 m² and < 1m²)

Expand to show TLE details & history
Last TLE update: 1 year ago

TLE from 1 year ago
0 PICO-01G005
1 58330U 23174CC  25122.60997270  .11205723  25281-5  71351-3 0  9992
2 58330  97.3622 210.4598 0015658 278.9065  81.0461 16.40068156 83032
Epoch: 2025-05-02T14:38Z
TLE epoch observation values (Epoch: 2025-05-02T14:38:21.641Z)
Latitude
-0.00009°
Longitude
130.10552°
Altitude
167.294 km
Speed
7.807 km/s
True Right ascension
14h 01m 50s
True Declination
0° 00' 00"
Sunlit
Object was in full shadow at epoch
Visualization orbit readout
Latitude
Unknown
Longitude
Unknown
Altitude
Unknown
Speed
Unknown
Apparent Right ascension
Unknown
Apparent Declination
Unknown
Sunlit
N/A
Visualization observer readout
Local Sidereal Time
21:40:21
Azimuth
Unknown
Elevation
Unknown
Doppler factor
Unknown
Orbital elements
Apogee altitude
172.668 km
Perigee altitude
152.186 km
Semi-major axis
6,540.564 km
Eccentricity
0.00157
Inclination
97.3622°
RAAN
210.4598°
Arg. of periapsis
278.9065°
True anomaly
81.22339°
Mean anomaly
81.0461°
Eccentric anomaly
81.13474°
Mean motion
4.10318 °/min
Orbital period
87.74 mins
BSTAR
0.00071351
Loading maneuver chart data...
Computing Atmospheric mass density...

Documentation

Showing up to 5 results
|